Location: Lourdes
(43.1000°N, 0.0500°W)
Time: 05:09:03
(UTC+00:00)

SAR-Lupe-4 - Pass Details

Date: 30 November 2020
Orbit: 481 x 484 km, 98.2° (Epoch: 09 January)

Event Time Altitude Azimuth Distance (km) Brightness Sun altitude
Exits shadow 17:54:17 28° 46° (NE) 934 4.5 -15.6°
Maximum altitude 17:55:44 44° 100° (E) 676 3.8 -15.9°
Drops below altitude 10° 17:59:10 10° 174° (S) 1,661 6.4 -16.5°
Sets 18:01:17 0° 181° (S) 2,536 7.4 -16.8°
